Time,TemperatureF,DewpointF,PressureIn,WindDirection,WindDirectionDegrees,WindSpeedMPH,WindSpeedGustMPH,Humidity,HourlyPrecipIn,Conditions,Clouds,dailyrainin,SoftwareType,DateUTC
2013-05-07 00:02:00,56.8,50.4,30.21,SSW,197,0.0,1.0,79,0.00,,,0.00,meteohub,2013-05-07 05:02:00,
2013-05-07 00:07:00,56.8,50.4,30.21,SSW,197,0.0,1.0,79,0.00,,,0.00,meteohub,2013-05-07 05:07:00,
2013-05-07 00:12:00,56.8,50.4,30.21,SSE,155,1.0,1.0,79,0.00,,,0.00,meteohub,2013-05-07 05:12:00,
2013-05-07 00:17:00,56.8,50.0,30.21,ESE,122,1.0,2.0,78,0.00,,,0.00,meteohub,2013-05-07 05:17:00,
2013-05-07 00:22:00,56.8,50.4,30.21,ESE,121,1.0,2.0,79,0.00,,,0.00,meteohub,2013-05-07 05:22:00,
2013-05-07 00:27:00,56.7,50.2,30.21,ESE,116,2.0,2.0,79,0.00,,,0.00,meteohub,2013-05-07 05:27:00,
2013-05-07 00:32:00,56.7,50.2,30.21,ESE,105,2.0,3.0,79,0.00,,,0.00,meteohub,2013-05-07 05:32:00,
2013-05-07 00:37:00,56.5,50.0,30.21,ESE,115,1.0,3.0,79,0.00,,,0.00,meteohub,2013-05-07 05:37:00,
2013-05-07 00:42:00,56.5,50.0,30.21,SE,127,1.0,3.0,79,0.00,,,0.00,meteohub,2013-05-07 05:42:00,
2013-05-07 00:47:00,56.5,50.0,30.21,East,101,2.0,2.0,79,0.00,,,0.00,meteohub,2013-05-07 05:47:00,
2013-05-07 00:51:00,56.5,50.0,30.21,ESE,115,1.0,2.0,79,0.00,,,0.00,meteohub,2013-05-07 05:51:00,
2013-05-07 00:56:00,56.5,50.0,30.21,ESE,115,2.0,3.0,79,0.00,,,0.00,meteohub,2013-05-07 05:56:00,
2013-05-07 01:02:00,56.3,50.2,30.21,ESE,103,1.0,3.0,80,0.00,,,0.00,meteohub,2013-05-07 06:02:00,
2013-05-07 01:07:00,56.1,50.0,30.21,East,87,2.0,2.0,80,0.00,,,0.00,meteohub,2013-05-07 06:07:00,
2013-05-07 01:12:00,56.1,50.0,30.21,ENE,75,2.0,3.0,80,0.00,,,0.00,meteohub,2013-05-07 06:12:00,
2013-05-07 01:17:00,56.1,50.0,30.21,ESE,103,1.0,4.0,80,0.00,,,0.00,meteohub,2013-05-07 06:17:00,
2013-05-07 01:22:00,55.9,49.8,30.21,ESE,105,0.0,4.0,80,0.00,,,0.00,meteohub,2013-05-07 06:22:00,
2013-05-07 01:27:00,55.8,50.0,30.21,ESE,105,0.0,4.0,81,0.00,,,0.00,meteohub,2013-05-07 06:27:00,
2013-05-07 01:32:00,55.6,49.8,30.21,WSW,252,0.0,2.0,81,0.00,,,0.00,meteohub,2013-05-07 06:32:00,
2013-05-07 01:37:00,55.0,50.0,30.21,WSW,252,0.0,1.0,83,0.00,,,0.00,meteohub,2013-05-07 06:37:00,
2013-05-07 01:42:00,54.5,49.8,30.21,WSW,251,0.0,0.0,84,0.00,,,0.00,meteohub,2013-05-07 06:42:00,
2013-05-07 01:47:00,54.3,49.8,30.21,WSW,252,0.0,0.0,85,0.00,,,0.00,meteohub,2013-05-07 06:47:00,
2013-05-07 01:52:00,54.3,49.6,30.21,WSW,252,0.0,0.0,84,0.00,,,0.00,meteohub,2013-05-07 06:52:00,
2013-05-07 01:57:00,54.7,50.0,30.21,WSW,252,0.0,0.0,84,0.00,,,0.00,meteohub,2013-05-07 06:57:00,
2013-05-07 02:02:00,54.7,49.6,30.21,WSW,252,0.0,0.0,83,0.00,,,0.00,meteohub,2013-05-07 07:02:00,
2013-05-07 02:07:00,54.7,49.6,30.21,WSW,252,0.0,0.0,83,0.00,,,0.00,meteohub,2013-05-07 07:07:00,
2013-05-07 02:12:00,54.5,49.8,30.21,WSW,252,0.0,0.0,84,0.00,,,0.00,meteohub,2013-05-07 07:12:00,
2013-05-07 02:17:00,54.3,49.6,30.21,WSW,252,0.0,0.0,84,0.00,,,0.00,meteohub,2013-05-07 07:17:00,
2013-05-07 02:22:00,54.1,49.5,30.21,WSW,252,0.0,0.0,84,0.00,,,0.00,meteohub,2013-05-07 07:22:00,
2013-05-07 02:27:00,54.1,49.5,30.20,WSW,252,0.0,0.0,84,0.00,,,0.00,meteohub,2013-05-07 07:27:00,
2013-05-07 02:32:00,54.1,49.5,30.20,WSW,252,0.0,0.0,84,0.00,,,0.00,meteohub,2013-05-07 07:32:00,
2013-05-07 02:37:00,54.1,49.5,30.20,WSW,252,0.0,0.0,84,0.00,,,0.00,meteohub,2013-05-07 07:37:00,
2013-05-07 02:42:00,54.0,49.3,30.20,WSW,252,0.0,0.0,84,0.00,,,0.00,meteohub,2013-05-07 07:42:00,
2013-05-07 02:47:00,54.0,49.6,30.20,WSW,252,0.0,0.0,85,0.00,,,0.00,meteohub,2013-05-07 07:47:00,
2013-05-07 02:52:00,54.0,49.6,30.20,WSW,252,0.0,0.0,85,0.00,,,0.00,meteohub,2013-05-07 07:52:00,
2013-05-07 02:57:00,54.0,49.6,30.20,ENE,68,0.0,0.0,85,0.00,,,0.00,meteohub,2013-05-07 07:57:00,
2013-05-07 03:02:00,53.8,49.5,30.20,ENE,65,0.0,0.0,85,0.00,,,0.00,meteohub,2013-05-07 08:02:00,
2013-05-07 03:07:00,53.6,49.5,30.20,ENE,65,0.0,0.0,86,0.00,,,0.00,meteohub,2013-05-07 08:07:00,
2013-05-07 03:12:00,53.4,49.3,30.20,East,97,0.0,0.0,86,0.00,,,0.00,meteohub,2013-05-07 08:12:00,
2013-05-07 03:17:00,53.1,49.3,30.19,East,86,4.0,0.0,87,0.00,,,0.00,meteohub,2013-05-07 08:17:00,
2013-05-07 03:22:00,53.1,49.3,30.19,ENE,75,3.0,4.0,87,0.00,,,0.00,meteohub,2013-05-07 08:22:00,
2013-05-07 03:27:00,52.9,49.1,30.19,East,79,2.0,4.0,87,0.00,,,0.00,meteohub,2013-05-07 08:27:00,
2013-05-07 03:32:00,52.9,49.1,30.19,East,84,2.0,4.0,87,0.00,,,0.00,meteohub,2013-05-07 08:32:00,
2013-05-07 03:37:00,52.9,49.1,30.19,East,80,0.0,4.0,87,0.00,,,0.00,meteohub,2013-05-07 08:37:00,
2013-05-07 03:42:00,52.7,48.9,30.19,ESE,109,0.0,3.0,87,0.00,,,0.00,meteohub,2013-05-07 08:42:00,
2013-05-07 03:47:00,52.9,49.1,30.19,East,98,3.0,3.0,87,0.00,,,0.00,meteohub,2013-05-07 08:47:00,
2013-05-07 03:52:00,52.9,49.1,30.19,SE,130,2.0,3.0,87,0.00,,,0.00,meteohub,2013-05-07 08:52:00,
2013-05-07 03:57:00,52.9,49.1,30.19,ESE,120,0.0,3.0,87,0.00,,,0.00,meteohub,2013-05-07 08:57:00,
2013-05-07 04:02:00,52.9,49.1,30.19,SE,127,1.0,3.0,87,0.00,,,0.00,meteohub,2013-05-07 09:02:00,
2013-05-07 04:07:00,52.9,49.1,30.19,SE,124,1.0,2.0,87,0.00,,,0.00,meteohub,2013-05-07 09:07:00,
2013-05-07 04:12:00,52.9,49.1,30.19,SE,140,1.0,2.0,87,0.00,,,0.00,meteohub,2013-05-07 09:12:00,
2013-05-07 04:17:00,52.7,48.9,30.19,SSE,152,2.0,2.0,87,0.00,,,0.00,meteohub,2013-05-07 09:17:00,
2013-05-07 04:22:00,52.5,49.1,30.19,SE,127,1.0,3.0,88,0.00,,,0.00,meteohub,2013-05-07 09:22:00,
2013-05-07 04:27:00,52.5,49.1,30.19,SE,136,0.0,3.0,88,0.00,,,0.00,meteohub,2013-05-07 09:27:00,
2013-05-07 04:32:00,52.5,49.1,30.19,SE,138,2.0,3.0,88,0.00,,,0.00,meteohub,2013-05-07 09:32:00,
2013-05-07 04:37:00,52.7,49.3,30.19,South,176,2.0,3.0,88,0.00,,,0.00,meteohub,2013-05-07 09:37:00,
2013-05-07 04:42:00,52.7,49.3,30.19,SE,143,1.0,3.0,88,0.00,,,0.00,meteohub,2013-05-07 09:42:00,
2013-05-07 04:47:00,52.9,49.5,30.19,ESE,113,1.0,3.0,88,0.00,,,0.00,meteohub,2013-05-07 09:47:00,
2013-05-07 04:52:00,53.1,49.3,30.19,ESE,122,3.0,3.0,87,0.00,,,0.00,meteohub,2013-05-07 09:52:00,
2013-05-07 04:57:00,53.1,49.3,30.19,East,91,1.0,4.0,87,0.00,,,0.00,meteohub,2013-05-07 09:57:00,
2013-05-07 05:02:00,53.1,49.3,30.19,East,101,1.0,4.0,87,0.00,,,0.00,meteohub,2013-05-07 10:02:00,
2013-05-07 05:07:00,53.1,49.3,30.19,ESE,114,0.0,4.0,87,0.00,,,0.00,meteohub,2013-05-07 10:07:00,
2013-05-07 05:11:00,53.1,49.3,30.20,SE,142,1.0,3.0,87,0.00,,,0.00,meteohub,2013-05-07 10:11:00,
2013-05-07 05:16:00,53.1,49.3,30.20,SW,221,3.0,3.0,87,0.00,,,0.00,meteohub,2013-05-07 10:16:00,
2013-05-07 05:21:00,53.1,49.3,30.20,SSW,202,1.0,4.0,87,0.00,,,0.00,meteohub,2013-05-07 10:21:00,
2013-05-07 05:26:00,53.1,49.3,30.20,SSE,163,0.0,4.0,87,0.00,,,0.00,meteohub,2013-05-07 10:26:00,
2013-05-07 05:32:00,53.1,49.3,30.20,South,186,3.0,4.0,87,0.00,,,0.00,meteohub,2013-05-07 10:32:00,
2013-05-07 05:37:00,53.1,49.3,30.20,SW,231,1.0,3.0,87,0.00,,,0.00,meteohub,2013-05-07 10:37:00,
2013-05-07 05:42:00,53.1,49.3,30.20,SSW,212,1.0,3.0,87,0.00,,,0.00,meteohub,2013-05-07 10:42:00,
2013-05-07 05:46:00,52.9,49.1,30.20,SSE,149,0.0,3.0,87,0.00,,,0.00,meteohub,2013-05-07 10:46:00,
2013-05-07 05:51:00,52.7,49.3,30.20,South,170,1.0,3.0,88,0.00,,,0.00,meteohub,2013-05-07 10:51:00,
2013-05-07 05:57:00,52.5,49.1,30.20,SE,140,0.0,3.0,88,0.00,,,0.00,meteohub,2013-05-07 10:57:00,
2013-05-07 06:02:00,52.5,49.1,30.20,SE,140,0.0,3.0,88,0.00,,,0.00,meteohub,2013-05-07 11:02:00,
2013-05-07 06:07:00,52.3,48.9,30.20,SE,140,1.0,3.0,88,0.00,,,0.00,meteohub,2013-05-07 11:07:00,
2013-05-07 06:11:00,52.3,48.9,30.20,SE,134,1.0,1.0,88,0.00,,,0.00,meteohub,2013-05-07 11:11:00,
2013-05-07 06:16:00,52.3,48.9,30.20,SE,146,0.0,1.0,88,0.00,,,0.00,meteohub,2013-05-07 11:16:00,
2013-05-07 06:21:00,52.3,48.9,30.20,SE,146,0.0,1.0,88,0.00,,,0.00,meteohub,2013-05-07 11:21:00,
2013-05-07 06:27:00,52.2,48.7,30.20,SE,136,1.0,1.0,88,0.00,,,0.00,meteohub,2013-05-07 11:27:00,
2013-05-07 06:32:00,52.2,48.7,30.21,SE,135,0.0,1.0,88,0.00,,,0.00,meteohub,2013-05-07 11:32:00,
2013-05-07 06:37:00,52.3,48.9,30.21,SSE,157,1.0,1.0,88,0.00,,,0.00,meteohub,2013-05-07 11:37:00,
2013-05-07 06:42:00,52.3,48.9,30.21,SSE,158,0.0,1.0,88,0.00,,,0.00,meteohub,2013-05-07 11:42:00,
2013-05-07 06:47:00,52.3,48.9,30.21,SE,135,0.0,2.0,88,0.00,,,0.00,meteohub,2013-05-07 11:47:00,
2013-05-07 06:52:00,52.5,49.1,30.21,East,98,1.0,2.0,88,0.00,,,0.00,meteohub,2013-05-07 11:52:00,
2013-05-07 06:57:00,52.9,49.5,30.22,East,98,2.0,2.0,88,0.00,,,0.00,meteohub,2013-05-07 11:57:00,
2013-05-07 07:02:00,53.1,49.6,30.22,ESE,110,1.0,2.0,88,0.00,,,0.00,meteohub,2013-05-07 12:02:00,
2013-05-07 07:07:00,53.2,49.5,30.22,ESE,110,1.0,2.0,87,0.00,,,0.00,meteohub,2013-05-07 12:07:00,
2013-05-07 07:12:00,53.4,49.3,30.22,ESE,122,1.0,2.0,86,0.00,,,0.00,meteohub,2013-05-07 12:12:00,
2013-05-07 07:17:00,53.6,49.5,30.22,SE,124,0.0,2.0,86,0.00,,,0.00,meteohub,2013-05-07 12:17:00,
2013-05-07 07:22:00,54.0,49.8,30.22,South,190,1.0,2.0,86,0.00,,,0.00,meteohub,2013-05-07 12:22:00,
2013-05-07 07:27:00,54.3,50.2,30.22,SSE,155,1.0,2.0,86,0.00,,,0.00,meteohub,2013-05-07 12:27:00,
2013-05-07 07:32:00,54.7,50.2,30.22,SSE,155,3.0,4.0,85,0.00,,,0.00,meteohub,2013-05-07 12:32:00,
2013-05-07 07:37:00,55.0,50.5,30.23,SW,215,2.0,4.0,85,0.00,,,0.00,meteohub,2013-05-07 12:37:00,
2013-05-07 07:42:00,55.6,50.9,30.23,South,169,3.0,4.0,84,0.00,,,0.00,meteohub,2013-05-07 12:42:00,
2013-05-07 07:47:00,55.6,50.9,30.23,SSE,167,4.0,4.0,84,0.00,,,0.00,meteohub,2013-05-07 12:47:00,
2013-05-07 07:52:00,55.8,51.1,30.22,SSE,149,2.0,5.0,84,0.00,,,0.00,meteohub,2013-05-07 12:52:00,
2013-05-07 07:57:00,55.9,51.3,30.22,SSE,149,1.0,5.0,84,0.00,,,0.00,meteohub,2013-05-07 12:57:00,
2013-05-07 08:02:00,56.1,51.1,30.23,SW,221,2.0,5.0,83,0.00,,,0.00,meteohub,2013-05-07 13:02:00,
2013-05-07 08:07:00,56.1,51.4,30.23,SW,222,3.0,5.0,84,0.00,,,0.00,meteohub,2013-05-07 13:07:00,
2013-05-07 08:11:00,56.3,51.3,30.23,SW,217,2.0,6.0,83,0.00,,,0.00,meteohub,2013-05-07 13:11:00,
2013-05-07 08:16:00,56.1,51.4,30.23,WSW,243,5.0,7.0,84,0.00,,,0.00,meteohub,2013-05-07 13:16:00,
2013-05-07 08:22:00,56.3,51.4,30.23,South,179,2.0,8.0,84,0.00,,,0.00,meteohub,2013-05-07 13:22:00,
2013-05-07 08:27:00,56.7,51.8,30.23,SW,226,6.0,8.0,84,0.00,,,0.00,meteohub,2013-05-07 13:27:00,
2013-05-07 08:32:00,57.0,52.2,30.23,SSW,197,3.0,6.0,84,0.00,,,0.00,meteohub,2013-05-07 13:32:00,
2013-05-07 08:37:00,57.4,52.0,30.23,WSW,249,4.0,8.0,82,0.00,,,0.00,meteohub,2013-05-07 13:37:00,
2013-05-07 08:42:00,57.6,52.2,30.23,SW,217,1.0,8.0,82,0.00,,,0.00,meteohub,2013-05-07 13:42:00,
2013-05-07 08:47:00,58.6,52.9,30.23,SSE,160,3.0,8.0,81,0.00,,,0.00,meteohub,2013-05-07 13:47:00,
2013-05-07 08:52:00,58.6,52.5,30.23,SSW,193,0.0,6.0,80,0.00,,,0.00,meteohub,2013-05-07 13:52:00,
2013-05-07 08:57:00,58.8,52.3,30.23,SSE,147,2.0,6.0,79,0.00,,,0.00,meteohub,2013-05-07 13:57:00,
2013-05-07 09:02:00,58.8,52.7,30.23,SSE,158,4.0,6.0,80,0.00,,,0.00,meteohub,2013-05-07 14:02:00,
2013-05-07 09:07:00,59.0,52.5,30.23,SW,235,3.0,7.0,79,0.00,,,0.00,meteohub,2013-05-07 14:07:00,
2013-05-07 09:12:00,59.2,52.7,30.23,SW,226,4.0,7.0,79,0.00,,,0.00,meteohub,2013-05-07 14:12:00,
2013-05-07 09:16:00,59.7,52.9,30.23,SW,221,2.0,8.0,78,0.00,,,0.00,meteohub,2013-05-07 14:16:00,
2013-05-07 09:22:00,60.1,53.2,30.23,SW,233,2.0,8.0,78,0.00,,,0.00,meteohub,2013-05-07 14:22:00,
2013-05-07 09:27:00,60.4,53.2,30.23,SW,229,7.0,7.0,77,0.00,,,0.00,meteohub,2013-05-07 14:27:00,
2013-05-07 09:32:00,60.3,53.1,30.23,SW,217,7.0,7.0,77,0.00,,,0.00,meteohub,2013-05-07 14:32:00,
2013-05-07 09:37:00,60.1,52.9,30.23,SW,233,2.0,10.0,77,0.00,,,0.00,meteohub,2013-05-07 14:37:00,
2013-05-07 09:42:00,60.6,53.4,30.23,SW,222,3.0,10.0,77,0.00,,,0.00,meteohub,2013-05-07 14:42:00,
2013-05-07 09:47:00,61.0,53.8,30.23,South,190,3.0,10.0,77,0.00,,,0.00,meteohub,2013-05-07 14:47:00,
2013-05-07 09:52:00,61.3,53.8,30.23,SW,214,2.0,7.0,76,0.00,,,0.00,meteohub,2013-05-07 14:52:00,
2013-05-07 09:57:00,61.5,54.0,30.23,SE,131,6.0,7.0,76,0.00,,,0.00,meteohub,2013-05-07 14:57:00,
2013-05-07 10:02:00,61.3,53.4,30.23,SSW,200,4.0,7.0,75,0.00,,,0.00,meteohub,2013-05-07 15:02:00,
2013-05-07 10:07:00,61.5,53.6,30.23,SSE,150,4.0,8.0,75,0.00,,,0.00,meteohub,2013-05-07 15:07:00,
2013-05-07 10:12:00,61.9,53.8,30.23,SSE,155,5.0,10.0,75,0.00,,,0.00,meteohub,2013-05-07 15:12:00,
2013-05-07 10:17:00,62.1,54.0,30.23,SSE,149,6.0,10.0,75,0.00,,,0.00,meteohub,2013-05-07 15:17:00,
2013-05-07 10:22:00,61.9,53.8,30.23,SW,214,4.0,8.0,75,0.00,,,0.00,meteohub,2013-05-07 15:22:00,
2013-05-07 10:27:00,61.7,53.8,30.23,SW,219,2.0,8.0,75,0.00,,,0.00,meteohub,2013-05-07 15:27:00,
2013-05-07 10:32:00,62.1,54.0,30.23,South,190,4.0,11.0,75,0.00,,,0.00,meteohub,2013-05-07 15:32:00,
2013-05-07 10:37:00,62.1,54.3,30.23,WSW,245,8.0,11.0,76,0.00,,,0.00,meteohub,2013-05-07 15:37:00,
2013-05-07 10:42:00,61.7,54.1,30.23,SW,224,10.0,12.0,76,0.00,,,0.00,meteohub,2013-05-07 15:42:00,
2013-05-07 10:47:00,61.3,54.1,30.23,SW,221,8.0,13.0,77,0.00,,,0.00,meteohub,2013-05-07 15:47:00,
2013-05-07 10:52:00,61.7,54.5,30.23,SW,225,8.0,13.0,77,0.00,,,0.00,meteohub,2013-05-07 15:52:00,
2013-05-07 10:57:00,61.5,54.3,30.23,SW,214,9.0,13.0,77,0.00,,,0.00,meteohub,2013-05-07 15:57:00,
2013-05-07 11:02:00,61.2,53.6,30.23,SW,224,13.0,13.0,76,0.00,,,0.00,meteohub,2013-05-07 16:02:00,
2013-05-07 11:07:00,61.2,53.6,30.23,SW,229,11.0,18.0,76,0.00,,,0.00,meteohub,2013-05-07 16:07:00,
2013-05-07 11:12:00,61.3,54.1,30.23,SSW,193,5.0,18.0,77,0.00,,,0.00,meteohub,2013-05-07 16:12:00,
2013-05-07 11:17:00,62.1,54.3,30.23,SW,224,6.0,18.0,76,0.00,,,0.00,meteohub,2013-05-07 16:17:00,
2013-05-07 11:22:00,62.8,54.3,30.23,SW,231,8.0,14.0,74,0.00,,,0.00,meteohub,2013-05-07 16:22:00,
2013-05-07 11:27:00,63.0,54.5,30.23,SW,218,11.0,11.0,74,0.00,,,0.00,meteohub,2013-05-07 16:27:00,
2013-05-07 11:32:00,63.7,55.2,30.23,SW,217,4.0,12.0,74,0.00,,,0.00,meteohub,2013-05-07 16:32:00,
2013-05-07 11:36:00,63.7,54.5,30.22,SSW,205,12.0,12.0,72,0.00,,,0.00,meteohub,2013-05-07 16:36:00,
2013-05-07 11:41:00,63.0,54.5,30.23,SW,219,9.0,20.0,74,0.00,,,0.00,meteohub,2013-05-07 16:41:00,
2013-05-07 11:46:00,63.1,54.3,30.22,SSW,210,6.0,20.0,73,0.00,,,0.00,meteohub,2013-05-07 16:46:00,
2013-05-07 11:51:00,63.7,54.5,30.22,SW,217,8.0,17.0,72,0.00,,,0.00,meteohub,2013-05-07 16:51:00,
2013-05-07 11:57:00,63.9,54.0,30.22,SW,226,14.0,17.0,70,0.00,,,0.00,meteohub,2013-05-07 16:57:00,
2013-05-07 12:02:00,64.0,54.1,30.22,SW,226,10.0,16.0,70,0.00,,,0.00,meteohub,2013-05-07 17:02:00,
2013-05-07 12:07:00,63.9,54.0,30.22,SW,214,7.0,16.0,70,0.00,,,0.00,meteohub,2013-05-07 17:07:00,
2013-05-07 12:12:00,64.0,54.1,30.22,SW,226,11.0,16.0,70,0.00,,,0.00,meteohub,2013-05-07 17:12:00,
2013-05-07 12:17:00,64.2,54.7,30.22,SSW,212,6.0,16.0,71,0.00,,,0.00,meteohub,2013-05-07 17:17:00,
2013-05-07 12:22:00,64.8,54.7,30.22,South,174,8.0,16.0,70,0.00,,,0.00,meteohub,2013-05-07 17:22:00,
2013-05-07 12:27:00,65.1,54.3,30.21,SW,231,6.0,14.0,68,0.00,,,0.00,meteohub,2013-05-07 17:27:00,
2013-05-07 12:32:00,65.7,53.6,30.21,South,186,8.0,12.0,65,0.00,,,0.00,meteohub,2013-05-07 17:32:00,
2013-05-07 12:37:00,66.0,54.3,30.20,SE,140,5.0,16.0,66,0.00,,,0.00,meteohub,2013-05-07 17:37:00,
2013-05-07 12:42:00,66.6,54.0,30.20,SSE,167,8.0,16.0,64,0.00,,,0.00,meteohub,2013-05-07 17:42:00,
2013-05-07 12:47:00,67.6,54.7,30.20,SW,224,1.0,16.0,63,0.00,,,0.00,meteohub,2013-05-07 17:47:00,
2013-05-07 12:52:00,67.6,54.1,30.19,SE,127,5.0,14.0,62,0.00,,,0.00,meteohub,2013-05-07 17:52:00,
2013-05-07 12:57:00,67.6,53.8,30.19,SSW,194,9.0,14.0,61,0.00,,,0.00,meteohub,2013-05-07 17:57:00,
2013-05-07 13:02:00,67.6,53.8,30.19,SW,214,12.0,14.0,61,0.00,,,0.00,meteohub,2013-05-07 18:02:00,
2013-05-07 13:07:00,67.1,54.1,30.19,SW,226,12.0,14.0,63,0.00,,,0.00,meteohub,2013-05-07 18:07:00,
2013-05-07 13:12:00,66.7,53.8,30.19,SW,214,5.0,14.0,63,0.00,,,0.00,meteohub,2013-05-07 18:12:00,
2013-05-07 13:17:00,66.7,53.8,30.19,ESE,112,10.0,14.0,63,0.00,,,0.00,meteohub,2013-05-07 18:17:00,
2013-05-07 13:22:00,66.2,54.1,30.18,SE,131,5.0,13.0,65,0.00,,,0.00,meteohub,2013-05-07 18:22:00,
2013-05-07 13:27:00,65.5,53.8,30.18,SE,135,6.0,13.0,66,0.00,,,0.00,meteohub,2013-05-07 18:27:00,
2013-05-07 13:32:00,65.1,54.0,30.17,ESE,114,11.0,15.0,67,0.00,,,0.00,meteohub,2013-05-07 18:32:00,
2013-05-07 13:37:00,65.1,54.3,30.17,ESE,122,10.0,15.0,68,0.00,,,0.00,meteohub,2013-05-07 18:37:00,
2013-05-07 13:42:00,64.9,53.8,30.17,South,173,5.0,16.0,67,0.00,,,0.00,meteohub,2013-05-07 18:42:00,
2013-05-07 13:47:00,64.8,52.7,30.17,ESE,109,11.0,17.0,65,0.00,,,0.00,meteohub,2013-05-07 18:47:00,
2013-05-07 13:52:00,64.8,53.1,30.17,ESE,105,9.0,17.0,66,0.00,,,0.00,meteohub,2013-05-07 18:52:00,
2013-05-07 13:57:00,64.9,53.2,30.17,SE,134,9.0,17.0,66,0.00,,,0.00,meteohub,2013-05-07 18:57:00,
2013-05-07 14:02:00,64.9,53.2,30.17,ESE,119,7.0,16.0,66,0.00,,,0.00,meteohub,2013-05-07 19:02:00,
2013-05-07 14:07:00,64.8,53.6,30.17,SE,145,4.0,14.0,67,0.00,,,0.00,meteohub,2013-05-07 19:07:00,
2013-05-07 14:12:00,64.9,53.8,30.17,SSW,193,4.0,14.0,67,0.00,,,0.00,meteohub,2013-05-07 19:12:00,
2013-05-07 14:17:00,65.1,53.4,30.17,SE,136,6.0,14.0,66,0.00,,,0.00,meteohub,2013-05-07 19:17:00,
2013-05-07 14:22:00,64.9,53.2,30.17,SE,125,5.0,11.0,66,0.00,,,0.00,meteohub,2013-05-07 19:22:00,
2013-05-07 14:27:00,65.1,53.1,30.16,ESE,122,9.0,10.0,65,0.00,,,0.00,meteohub,2013-05-07 19:27:00,
2013-05-07 14:32:00,64.9,53.8,30.16,ESE,122,8.0,11.0,67,0.00,,,0.00,meteohub,2013-05-07 19:32:00,
2013-05-07 14:37:00,65.1,54.0,30.15,ESE,122,5.0,11.0,67,0.00,,,0.00,meteohub,2013-05-07 19:37:00,
2013-05-07 14:42:00,65.7,54.0,30.15,SSW,194,5.0,11.0,66,0.00,,,0.00,meteohub,2013-05-07 19:42:00,
2013-05-07 14:47:00,66.2,53.2,30.15,South,191,2.0,10.0,63,0.00,,,0.00,meteohub,2013-05-07 19:47:00,
2013-05-07 14:52:00,65.8,53.2,30.15,SE,139,5.0,11.0,64,0.00,,,0.00,meteohub,2013-05-07 19:52:00,
2013-05-07 14:57:00,65.7,53.6,30.15,ESE,108,9.0,11.0,65,0.00,,,0.00,meteohub,2013-05-07 19:57:00,
2013-05-07 15:02:00,65.5,53.4,30.15,ESE,110,4.0,11.0,65,0.00,,,0.00,meteohub,2013-05-07 20:02:00,
2013-05-07 15:07:00,65.7,53.6,30.14,SSE,147,3.0,10.0,65,0.00,,,0.00,meteohub,2013-05-07 20:07:00,
2013-05-07 15:12:00,66.0,53.4,30.14,SE,131,4.0,10.0,64,0.00,,,0.00,meteohub,2013-05-07 20:12:00,
2013-05-07 15:17:00,66.7,53.2,30.14,ESE,113,10.0,10.0,62,0.00,,,0.00,meteohub,2013-05-07 20:17:00,
2013-05-07 15:22:00,66.6,53.1,30.13,ESE,114,8.0,15.0,62,0.00,,,0.00,meteohub,2013-05-07 20:22:00,
2013-05-07 15:27:00,66.9,53.4,30.13,ESE,105,11.0,15.0,62,0.00,,,0.00,meteohub,2013-05-07 20:27:00,
2013-05-07 15:32:00,67.6,53.2,30.13,East,97,6.0,17.0,60,0.00,,,0.00,meteohub,2013-05-07 20:32:00,
2013-05-07 15:37:00,68.4,54.3,30.13,SE,134,8.0,17.0,61,0.00,,,0.00,meteohub,2013-05-07 20:37:00,
2013-05-07 15:42:00,68.4,54.3,30.12,East,98,14.0,14.0,61,0.00,,,0.00,meteohub,2013-05-07 20:42:00,
2013-05-07 15:47:00,68.5,55.4,30.12,ESE,118,13.0,16.0,63,0.00,,,0.00,meteohub,2013-05-07 20:47:00,
2013-05-07 15:52:00,68.0,55.4,30.12,ESE,116,12.0,18.0,64,0.00,,,0.00,meteohub,2013-05-07 20:52:00,
2013-05-07 15:57:00,68.2,55.9,30.12,ESE,118,12.0,18.0,65,0.00,,,0.00,meteohub,2013-05-07 20:57:00,
2013-05-07 16:02:00,68.5,56.7,30.12,SE,146,10.0,18.0,66,0.00,,,0.00,meteohub,2013-05-07 21:02:00,
2013-05-07 16:07:00,68.7,56.5,30.11,East,100,10.0,17.0,65,0.00,,,0.00,meteohub,2013-05-07 21:07:00,
2013-05-07 16:12:00,69.3,56.1,30.11,SE,135,8.0,17.0,63,0.00,,,0.00,meteohub,2013-05-07 21:12:00,
2013-05-07 16:17:00,69.4,54.9,30.11,SE,128,8.0,17.0,60,0.00,,,0.00,meteohub,2013-05-07 21:17:00,
2013-05-07 16:22:00,70.2,54.1,30.11,ESE,103,7.0,17.0,57,0.00,,,0.00,meteohub,2013-05-07 21:22:00,
2013-05-07 16:27:00,70.7,53.8,30.10,SE,127,6.0,17.0,55,0.00,,,0.00,meteohub,2013-05-07 21:27:00,
2013-05-07 16:32:00,70.7,53.2,30.10,SE,132,13.0,15.0,54,0.00,,,0.00,meteohub,2013-05-07 21:32:00,
2013-05-07 16:37:00,70.2,53.8,30.10,SSE,157,11.0,16.0,56,0.00,,,0.00,meteohub,2013-05-07 21:37:00,
2013-05-07 16:42:00,70.3,53.4,30.10,SSE,160,4.0,16.0,55,0.00,,,0.00,meteohub,2013-05-07 21:42:00,
2013-05-07 16:47:00,70.7,53.2,30.10,ESE,119,7.0,16.0,54,0.00,,,0.00,meteohub,2013-05-07 21:47:00,
2013-05-07 16:52:00,70.5,52.5,30.10,ESE,120,12.0,17.0,53,0.00,,,0.00,meteohub,2013-05-07 21:52:00,
2013-05-07 16:57:00,70.9,52.3,30.10,ESE,108,9.0,18.0,52,0.00,,,0.00,meteohub,2013-05-07 21:57:00,
2013-05-07 17:02:00,70.5,52.5,30.09,SE,140,6.0,18.0,53,0.00,,,0.00,meteohub,2013-05-07 22:02:00,
2013-05-07 17:07:00,70.5,52.5,30.09,ESE,116,16.0,18.0,53,0.00,,,0.00,meteohub,2013-05-07 22:07:00,
2013-05-07 17:12:00,70.2,52.2,30.09,SE,139,14.0,21.0,53,0.00,,,0.00,meteohub,2013-05-07 22:12:00,
2013-05-07 17:17:00,70.3,51.8,30.09,SSE,153,8.0,21.0,52,0.00,,,0.00,meteohub,2013-05-07 22:17:00,
2013-05-07 17:22:00,70.5,52.0,30.09,SSE,149,8.0,21.0,52,0.00,,,0.00,meteohub,2013-05-07 22:22:00,
2013-05-07 17:27:00,70.7,52.7,30.09,ESE,121,9.0,18.0,53,0.00,,,0.00,meteohub,2013-05-07 22:27:00,
2013-05-07 17:31:00,71.1,52.5,30.09,SE,132,9.0,18.0,52,0.00,,,0.00,meteohub,2013-05-07 22:31:00,
2013-05-07 17:36:00,71.1,52.5,30.09,SSW,194,7.0,18.0,52,0.00,,,0.00,meteohub,2013-05-07 22:36:00,
2013-05-07 17:41:00,71.1,52.5,30.09,SE,127,10.0,18.0,52,0.00,,,0.00,meteohub,2013-05-07 22:41:00,
2013-05-07 17:47:00,70.9,52.9,30.09,East,88,15.0,16.0,53,0.00,,,0.00,meteohub,2013-05-07 22:47:00,
2013-05-07 17:52:00,71.4,54.0,30.09,ESE,119,7.0,18.0,54,0.00,,,0.00,meteohub,2013-05-07 22:52:00,
2013-05-07 17:57:00,71.2,53.2,30.09,SE,135,13.0,18.0,53,0.00,,,0.00,meteohub,2013-05-07 22:57:00,
2013-05-07 18:02:00,71.4,53.4,30.09,ESE,119,12.0,21.0,53,0.00,,,0.00,meteohub,2013-05-07 23:02:00,
2013-05-07 18:07:00,71.6,54.1,30.09,East,94,12.0,21.0,54,0.00,,,0.00,meteohub,2013-05-07 23:07:00,
2013-05-07 18:12:00,71.4,52.9,30.09,East,92,7.0,16.0,52,0.00,,,0.00,meteohub,2013-05-07 23:12:00,
2013-05-07 18:17:00,72.0,52.9,30.09,SSE,153,5.0,16.0,51,0.00,,,0.00,meteohub,2013-05-07 23:17:00,
2013-05-07 18:22:00,71.8,52.2,30.09,ESE,118,12.0,16.0,50,0.00,,,0.00,meteohub,2013-05-07 23:22:00,
2013-05-07 18:27:00,71.4,52.3,30.09,ESE,121,6.0,18.0,51,0.00,,,0.00,meteohub,2013-05-07 23:27:00,
2013-05-07 18:32:00,72.1,53.1,30.08,SW,221,5.0,18.0,51,0.00,,,0.00,meteohub,2013-05-07 23:32:00,
2013-05-07 18:37:00,72.3,53.2,30.08,SSE,167,6.0,18.0,51,0.00,,,0.00,meteohub,2013-05-07 23:37:00,
2013-05-07 18:42:00,72.3,53.2,30.08,ESE,103,12.0,16.0,51,0.00,,,0.00,meteohub,2013-05-07 23:42:00,
2013-05-07 18:46:00,72.1,53.1,30.08,SE,127,4.0,16.0,51,0.00,,,0.00,meteohub,2013-05-07 23:46:00,
2013-05-07 18:52:00,72.1,52.5,30.07,South,180,4.0,16.0,50,0.00,,,0.00,meteohub,2013-05-07 23:52:00,
2013-05-07 18:57:00,72.1,52.0,30.07,SE,129,10.0,15.0,49,0.00,,,0.00,meteohub,2013-05-07 23:57:00,
2013-05-07 19:02:00,72.0,51.8,30.07,East,92,13.0,17.0,49,0.00,,,0.00,meteohub,2013-05-08 00:02:00,
2013-05-07 19:07:00,72.0,50.7,30.06,ESE,118,15.0,19.0,47,0.00,,,0.00,meteohub,2013-05-08 00:07:00,
2013-05-07 19:12:00,72.0,50.7,30.06,East,98,8.0,19.0,47,0.00,,,0.00,meteohub,2013-05-08 00:12:00,
2013-05-07 19:17:00,72.0,50.7,30.06,ESE,113,16.0,19.0,47,0.00,,,0.00,meteohub,2013-05-08 00:17:00,
2013-05-07 19:22:00,71.8,50.5,30.06,SE,135,10.0,19.0,47,0.00,,,0.00,meteohub,2013-05-08 00:22:00,
2013-05-07 19:27:00,72.0,51.3,30.06,ESE,110,14.0,19.0,48,0.00,,,0.00,meteohub,2013-05-08 00:27:00,
2013-05-07 19:32:00,71.6,50.9,30.06,ESE,118,14.0,18.0,48,0.00,,,0.00,meteohub,2013-05-08 00:32:00,
2013-05-07 19:37:00,71.4,51.3,30.05,ESE,121,13.0,17.0,49,0.00,,,0.00,meteohub,2013-05-08 00:37:00,
2013-05-07 19:42:00,71.2,51.1,30.06,ESE,119,5.0,17.0,49,0.00,,,0.00,meteohub,2013-05-08 00:42:00,
2013-05-07 19:47:00,71.1,50.9,30.06,SE,127,10.0,17.0,49,0.00,,,0.00,meteohub,2013-05-08 00:47:00,
2013-05-07 19:52:00,70.9,51.3,30.06,ESE,113,13.0,17.0,50,0.00,,,0.00,meteohub,2013-05-08 00:52:00,
2013-05-07 19:57:00,70.9,51.3,30.06,ESE,109,13.0,17.0,50,0.00,,,0.00,meteohub,2013-05-08 00:57:00,
2013-05-07 20:02:00,70.7,50.5,30.06,ESE,109,9.0,15.0,49,0.00,,,0.00,meteohub,2013-05-08 01:02:00,
2013-05-07 20:07:00,70.5,50.4,30.06,ESE,105,14.0,15.0,49,0.00,,,0.00,meteohub,2013-05-08 01:07:00,
2013-05-07 20:12:00,70.3,50.4,30.06,ESE,118,5.0,15.0,49,0.00,,,0.00,meteohub,2013-05-08 01:12:00,
2013-05-07 20:17:00,70.2,50.2,30.05,East,97,9.0,15.0,49,0.00,,,0.00,meteohub,2013-05-08 01:17:00,
2013-05-07 20:22:00,70.0,50.5,30.06,ESE,121,8.0,15.0,50,0.00,,,0.00,meteohub,2013-05-08 01:22:00,
2013-05-07 20:27:00,69.8,50.4,30.06,SE,127,7.0,15.0,50,0.00,,,0.00,meteohub,2013-05-08 01:27:00,
2013-05-07 20:31:00,69.6,50.2,30.06,SE,124,7.0,15.0,50,0.00,,,0.00,meteohub,2013-05-08 01:31:00,
2013-05-07 20:37:00,69.6,50.2,30.06,ESE,103,11.0,15.0,50,0.00,,,0.00,meteohub,2013-05-08 01:37:00,
2013-05-07 20:42:00,69.4,50.0,30.06,ESE,119,8.0,14.0,50,0.00,,,0.00,meteohub,2013-05-08 01:42:00,
2013-05-07 20:47:00,69.4,50.5,30.06,East,98,8.0,14.0,51,0.00,,,0.00,meteohub,2013-05-08 01:47:00,
2013-05-07 20:52:00,69.3,50.4,30.06,ESE,122,6.0,14.0,51,0.00,,,0.00,meteohub,2013-05-08 01:52:00,
2013-05-07 20:57:00,69.1,50.2,30.06,ESE,108,11.0,14.0,51,0.00,,,0.00,meteohub,2013-05-08 01:57:00,
2013-05-07 21:02:00,68.9,50.0,30.06,ESE,109,9.0,14.0,51,0.00,,,0.00,meteohub,2013-05-08 02:02:00,
2013-05-07 21:07:00,68.7,49.8,30.06,ESE,103,13.0,16.0,51,0.00,,,0.00,meteohub,2013-05-08 02:07:00,
2013-05-07 21:12:00,68.5,50.2,30.06,East,91,8.0,16.0,52,0.00,,,0.00,meteohub,2013-05-08 02:12:00,
2013-05-07 21:17:00,68.5,50.2,30.06,ESE,121,6.0,14.0,52,0.00,,,0.00,meteohub,2013-05-08 02:17:00,
2013-05-07 21:22:00,68.2,50.4,30.06,ESE,115,10.0,14.0,53,0.00,,,0.00,meteohub,2013-05-08 02:22:00,
2013-05-07 21:27:00,67.6,49.8,30.06,East,97,11.0,15.0,53,0.00,,,0.00,meteohub,2013-05-08 02:27:00,
2013-05-07 21:32:00,67.6,49.8,30.06,East,92,11.0,16.0,53,0.00,,,0.00,meteohub,2013-05-08 02:32:00,
2013-05-07 21:37:00,67.5,50.2,30.06,East,98,11.0,16.0,54,0.00,,,0.00,meteohub,2013-05-08 02:37:00,
2013-05-07 21:42:00,67.3,50.0,30.06,East,93,12.0,16.0,54,0.00,,,0.00,meteohub,2013-05-08 02:42:00,
2013-05-07 21:47:00,67.1,49.8,30.06,ESE,110,14.0,17.0,54,0.00,,,0.00,meteohub,2013-05-08 02:47:00,
2013-05-07 21:52:00,66.9,50.2,30.06,East,100,10.0,17.0,55,0.00,,,0.00,meteohub,2013-05-08 02:52:00,
2013-05-07 21:57:00,66.9,49.8,30.06,East,100,16.0,17.0,54,0.00,,,0.00,meteohub,2013-05-08 02:57:00,
2013-05-07 22:02:00,67.3,50.0,30.06,ESE,119,13.0,17.0,54,0.00,,,0.00,meteohub,2013-05-08 03:02:00,
2013-05-07 22:07:00,67.3,50.0,30.06,ESE,108,14.0,22.0,54,0.00,,,0.00,meteohub,2013-05-08 03:07:00,
2013-05-07 22:12:00,67.3,49.6,30.06,ESE,121,15.0,22.0,53,0.00,,,0.00,meteohub,2013-05-08 03:12:00,
2013-05-07 22:17:00,67.3,49.6,30.06,ESE,113,16.0,21.0,53,0.00,,,0.00,meteohub,2013-05-08 03:17:00,
2013-05-07 22:22:00,66.9,49.3,30.06,ESE,112,12.0,22.0,53,0.00,,,0.00,meteohub,2013-05-08 03:22:00,
2013-05-07 22:27:00,66.7,49.1,30.06,ESE,117,15.0,22.0,53,0.00,,,0.00,meteohub,2013-05-08 03:27:00,
2013-05-07 22:32:00,66.7,49.6,30.06,ESE,103,22.0,22.0,54,0.00,,,0.00,meteohub,2013-05-08 03:32:00,
2013-05-07 22:37:00,66.6,49.5,30.06,SE,127,11.0,22.0,54,0.00,,,0.00,meteohub,2013-05-08 03:37:00,
2013-05-07 22:42:00,66.4,49.3,30.06,ESE,105,13.0,22.0,54,0.00,,,0.00,meteohub,2013-05-08 03:42:00,
2013-05-07 22:47:00,66.4,49.6,30.06,ESE,106,12.0,22.0,55,0.00,,,0.00,meteohub,2013-05-08 03:47:00,
2013-05-07 22:51:00,66.2,49.6,30.06,East,90,9.0,20.0,55,0.00,,,0.00,meteohub,2013-05-08 03:51:00,
2013-05-07 22:57:00,66.0,49.5,30.06,ESE,115,15.0,20.0,55,0.00,,,0.00,meteohub,2013-05-08 03:57:00,
2013-05-07 23:01:00,66.0,49.5,30.06,East,101,9.0,20.0,55,0.00,,,0.00,meteohub,2013-05-08 04:01:00,
2013-05-07 23:06:00,66.0,49.8,30.06,ESE,118,14.0,17.0,56,0.00,,,0.00,meteohub,2013-05-08 04:06:00,
2013-05-07 23:11:00,66.0,49.8,30.06,ESE,118,16.0,18.0,56,0.00,,,0.00,meteohub,2013-05-08 04:11:00,
2013-05-07 23:16:00,66.0,49.5,30.05,ESE,113,13.0,20.0,55,0.00,,,0.00,meteohub,2013-05-08 04:16:00,
2013-05-07 23:21:00,65.8,49.6,30.05,ESE,122,9.0,20.0,56,0.00,,,0.00,meteohub,2013-05-08 04:21:00,
2013-05-07 23:26:00,65.8,49.6,30.05,East,101,14.0,18.0,56,0.00,,,0.00,meteohub,2013-05-08 04:26:00,
2013-05-07 23:31:00,65.7,49.5,30.05,ESE,122,13.0,18.0,56,0.00,,,0.00,meteohub,2013-05-08 04:31:00,
2013-05-07 23:36:00,65.7,49.5,30.04,ENE,60,16.0,19.0,56,0.00,,,0.00,meteohub,2013-05-08 04:36:00,
2013-05-07 23:41:00,65.5,49.8,30.04,SE,127,11.0,19.0,57,0.00,,,0.00,meteohub,2013-05-08 04:41:00,
2013-05-07 23:46:00,65.3,49.6,30.04,ESE,103,16.0,21.0,57,0.00,,,0.00,meteohub,2013-05-08 04:46:00,
2013-05-07 23:51:00,65.1,49.5,30.04,ESE,112,12.0,21.0,57,0.00,,,0.00,meteohub,2013-05-08 04:51:00,
2013-05-07 23:56:00,65.1,49.5,30.04,ESE,103,14.0,22.0,57,0.00,,,0.00,meteohub,2013-05-08 04:56:00,